Вернуться в каталог

DELTA 1 R/B

АктивенLEO
NORAD 2661·ROCKET BODY·🇺🇸 United States

Запущен Jan 26, 1967 с Vandenberg Space Force Base

Loading…

Ближайшие Пролёты (ближайшие 24 часа)

TLE

СвежийSource: Space-Track

Эпоха: Sep 14, 2026, 05:36 UTC

1 02661U 67006B   26257.23343427 -.00000025  00000-0  12083-3 0  9999
2 02661 101.9201 339.5298 0064700 239.9139 140.1230 12.68027838759448

Отслеживайте DELTA 1 R/B в реальном времени с AllMySat

Download on the App Store